User: anonymous   Login
Location: The Brower Observatory
(44.2042°N, 69.5667°W)
Time: 12:38:44
(UTC-04:00)
Language:

Envisat - Orbit

View from above orbital plane
View from above orbital plane
View from above satellite
View from above satellite

Ground track
Ground track

The orbit data is extracted from the following two-line orbital elements,

1 27386U 02009A   20263.01077065  .00000006  00000-0  15362-4 0  9993
2 27386  98.1389 265.1478 0001258  86.2884 329.8876 14.37992217972063
Epoch (UTC): 19 September 2020 00:15:30
Eccentricity: 0.0001258
inclination: 98.1389°
perigee height: 764 km
apogee height: 766 km
right ascension of ascending node: 265.1478°
argument of perigee: 86.2884°
revolutions per day: 14.37992217
mean anomaly at epoch: 329.8876°
orbit number at epoch: 97206

The dashed part of the orbit path shows where the satellite is in the earth's shadow,  

DLR